User: anonymous   Login
Location: Dodgeville, WI 53533, USA
(43.0344°N, 90.0900°W)
Time: 09:45:33
(UTC-05:00)
Language:

CAS-6 - Orbit

View from above orbital plane
View from above orbital plane
View from above satellite
View from above satellite

Ground track
Ground track

The orbit data is extracted from the following two-line orbital elements,

1 44881U 19093C   21110.04293566  .00000101  00000-0  19627-4 0  9998
2 44881  97.9261 189.5005 0016324 119.7358 240.5488 14.81439406 72087
Epoch (UTC): 20 April 2021 01:01:49
Eccentricity: 0.0016324
inclination: 97.9261°
perigee height: 613 km
apogee height: 636 km
right ascension of ascending node: 189.5005°
argument of perigee: 119.7358°
revolutions per day: 14.81439406
mean anomaly at epoch: 240.5488°
orbit number at epoch: 7208

The dashed part of the orbit path shows where the satellite is in the earth's shadow,  

DLR